sat.trackr.live / text

‹ back to catalog

STARLINK-33864

NORAD 63636 · 2025-083C

PAYLOAD ACTIVE UNKNOWN

§ Identity

Operator
Country
US
Launch date
2025-04-25
Launch site
AFETR
Launch vehicle
Mass (kg)
RCS (m²)

Purposes: comms

External: N2YO · Heavens-Above · Gunter

§ Orbital elements

Epoch: 2026-09-20T16:20:47.689728Z

Period
94.27 min
Inclination
43.0035°
Eccentricity
0.0001464
Mean motion
15.27583043 rev/d
Perigee alt
482.0 km
Apogee alt
484.0 km
Semi-major
6,861.2 km
B*
4.5971e-4
RAAN
344.3995°
Arg perigee
266.1283°
Mean anomaly
93.9401°
Rev number
7,991

§ Raw data

STARLINK-338641 63636U 25083C   26263.68110752  .00012410  00000+0  45971-3 0  99972 63636  43.0035 344.3995 0001464 266.1283  93.9401 15.27583043 79911

JSON: /api/v1/satellites/63636 · /tle

For live sub-satellite position, see the globe view (requires WebGL).

§ Visibility from observer

Set your observer location to see the next 7 days of passes ≥ 10°. The values pass through the URL so the page stays shareable.

No JS? Fill the form by hand. The geolocation button needs JavaScript.